Alexandria, LA

10:38 PM CDT on May 28, 2017 (GMT -0500)
Alexandria International

Weather History for KAEX - December, 2001

Change the Weather History Date:

Sunday, December 16, 2001

  Actual Average Record
Temperature  
Mean Temperature 70 °F 50 °F  
Max Temperature 77 °F 60 °F 82 °F (1924)
Min Temperature 64 °F 40 °F 17 °F (1943)
Degree Days  
Heating Degree Days 0 15  
Month to date heating degree days 229  
Since 1 July heating degree days 554  
Cooling Degree Days 6    
Growing Degree Days 20 (Base 50)    
Moisture  
Dew Point 69 °F    
Average Humidity 94    
Maximum Humidity 100    
Minimum Humidity 79    
Precipitation  
Precipitation 0.51 in 0.21 in 2.28 in (1996)
Month to date precipitation 3.68  
Year to date precipitation 53.48  
Snow  
Snow 0.00 in - 0.00 in ()
Month to date snowfall  
Since 1 July snowfall  
Snow Depth -    
Sea Level Pressure  
Sea Level Pressure 29.93 in    
Wind  
Wind Speed 11 mph (SSE)    
Max Wind Speed 18 mph    
Max Gust Speed 31 mph    
Visibility 6 miles    
Events Rain    
T = Trace of Precipitation, MM = Missing Value Source: NWS Daily Summary

Daily Weather History Graph

Daily Weather History Graph

Search for Another Location

Airport or City:

Trip Planner

Search our weather history database for the weather conditions in past years. The results will help you decide how hot, cold, wet, or windy it might be!

Date:

Astronomy

Dec. 16, 2001 Rise Set
Actual Time 7:02 AM CST 5:09 PM CST
Civil Twilight 6:35 AM CST 5:36 PM CST
Nautical Twilight 6:05 AM CST 6:06 PM CST
Astronomical Twilight 5:35 AM CST 6:36 PM CST
Moon 8:41 AM CST (12/16) 6:55 PM CST (12/16)
Length of Visible Light 11h 00m
Length of Day
10h 07m
Waxing Crescent, 4% of the Moon is Illuminated
Dec 16
Waxing Crescent
Dec 22
First Quarter
Dec 30
Full
Jan 5
Last Quarter
Jan 13
New

Hourly Weather History & Observations

Time (CST) Temp. Dew Point Humidity Pressure Visibility Wind Dir Wind Speed Gust Speed Precip Events Conditions
12:53 AM 64.9 °F 64.0 °F 97% 30.02 in 5.0 mi SSE 9.2 mph - N/A   Overcast
1:53 AM 64.9 °F 64.9 °F 100% 30.02 in 5.0 mi SSE 10.4 mph - N/A   Overcast
2:53 AM 66.0 °F 64.9 °F 96% 30.01 in 4.0 mi SE 8.1 mph - N/A   Overcast
3:15 AM 66.2 °F 64.4 °F 94% 29.99 in 3.0 mi ESE 6.9 mph - N/A   Overcast
3:53 AM 66.9 °F 66.0 °F 97% 29.99 in 5.0 mi SSE 11.5 mph - 0.00 in Rain Light Rain
4:53 AM 66.0 °F 66.0 °F 100% 29.99 in 3.0 mi ESE 6.9 mph - 0.00 in   Overcast
5:00 AM 66.2 °F 66.2 °F 100% 29.98 in 2.5 mi SE 8.1 mph - 0.00 in Rain Light Rain
5:37 AM 66.2 °F 66.2 °F 100% 29.97 in 1.2 mi ESE 9.2 mph - 0.00 in   Overcast
5:53 AM 66.9 °F 66.9 °F 100% 29.98 in 1.0 mi SE 8.1 mph - 0.00 in Rain Light Rain
6:17 AM 66.2 °F 66.2 °F 100% 29.96 in 2.5 mi SE 9.2 mph - N/A   Overcast
6:21 AM 66.2 °F 66.2 °F 100% 29.96 in 3.0 mi SE 9.2 mph - N/A   Overcast
6:53 AM 68.0 °F 68.0 °F 100% 29.98 in 6.0 mi SE 9.2 mph - N/A   Overcast
7:09 AM 69.8 °F 69.8 °F 100% 29.96 in 6.0 mi SE 8.1 mph - N/A   Overcast
7:16 AM 69.8 °F 69.8 °F 100% 29.96 in 5.0 mi SE 9.2 mph - N/A   Overcast
7:21 AM 69.8 °F 69.8 °F 100% 29.96 in 5.0 mi SE 9.2 mph - N/A   Overcast
7:53 AM 70.0 °F 70.0 °F 100% 29.99 in 6.0 mi SE 10.4 mph - N/A   Overcast
8:03 AM 69.8 °F 69.8 °F 100% 29.98 in 6.0 mi SE 10.4 mph - N/A   Overcast
8:53 AM 71.1 °F 71.1 °F 100% 29.99 in 5.0 mi SE 9.2 mph - N/A   Overcast
9:10 AM 71.6 °F 71.6 °F 100% 29.98 in 5.0 mi SE 10.4 mph - N/A   Overcast
9:29 AM 71.6 °F 71.6 °F 100% 29.97 in 2.0 mi SE 9.2 mph - 0.02 in Rain Light Rain
9:43 AM 71.6 °F 71.6 °F 100% 29.97 in 2.0 mi SSE 8.1 mph - 0.17 in Rain Rain
9:53 AM 71.1 °F 71.1 °F 100% 29.99 in 2.0 mi SSW 10.4 mph - 0.24 in Rain Rain
10:55 AM 73.4 °F 71.6 °F 94% 30.01 in 7.0 mi SE 11.5 mph - N/A Rain Rain
11:53 AM 73.9 °F 72.0 °F 93% 29.94 in 8.0 mi SSE 13.8 mph - N/A Rain Light Rain
12:53 PM 77.0 °F 72.0 °F 84% 29.91 in 10.0 mi SSE 12.7 mph 23.0 mph 0.00 in   Mostly Cloudy
1:53 PM 77.0 °F 70.0 °F 79% 29.89 in 10.0 mi South 15.0 mph - N/A   Overcast
2:53 PM 77.0 °F 71.1 °F 82% 29.88 in 10.0 mi South 11.5 mph 19.6 mph N/A   Mostly Cloudy
3:53 PM 75.9 °F 70.0 °F 82% 29.86 in 10.0 mi SSE 17.3 mph 25.3 mph 0.04 in   Mostly Cloudy
4:53 PM 75.9 °F 70.0 °F 82% 29.86 in 10.0 mi SSE 17.3 mph 20.7 mph N/A   Partly Cloudy
5:53 PM 75.0 °F 70.0 °F 84% 29.85 in 10.0 mi SSE 15.0 mph 20.7 mph N/A   Overcast
6:53 PM 73.9 °F 71.1 °F 91% 29.86 in 10.0 mi SSE 15.0 mph - 0.01 in Rain Light Rain
7:13 PM 73.4 °F 69.8 °F 88% 29.84 in 10.0 mi SSE 17.3 mph 23.0 mph 0.00 in   Overcast
7:21 PM 73.4 °F 69.8 °F 88% 29.84 in 10.0 mi SSE 17.3 mph 24.2 mph 0.00 in   Overcast
7:53 PM 73.9 °F 70.0 °F 87% 29.83 in 10.0 mi SSE 18.4 mph 31.1 mph 0.01 in   Overcast
8:05 PM 73.4 °F 69.8 °F 88% 29.83 in 10.0 mi South 15.0 mph 24.2 mph N/A   Overcast
8:53 PM 73.9 °F 70.0 °F 87% 29.83 in 10.0 mi South 18.4 mph 25.3 mph N/A   Overcast
9:53 PM 75.0 °F 70.0 °F 84% 29.82 in 10.0 mi South 18.4 mph 24.2 mph N/A   Overcast
10:53 PM 73.0 °F 71.1 °F 93% 29.84 in 5.0 mi South 17.3 mph 23.0 mph 0.17 in Rain Rain
11:36 PM 73.4 °F 71.6 °F 94% 29.83 in 10.0 mi South 15.0 mph 24.2 mph 0.04 in   Overcast
11:53 PM 73.0 °F 71.1 °F 93% 29.83 in 10.0 mi South 13.8 mph 21.9 mph 0.04 in   Overcast